�������l�o���
Date,Time,MP-1(��Sv/h),MP-2(��Sv/h),MP-3(��Sv/h),MP-4(��Sv/h),MP-5(��Sv/h),MP-6(��Sv/h),MP-7(��Sv/h),����,����(m/s),���J
2015/04/08,00:00,0.537,0.327,0.556,0.511,0.547,0.248,0.218,�k,8.3,��
2015/04/08,00:10,0.541,0.329,0.553,0.511,0.547,0.247,0.220,�k�k��,7.6,��
2015/04/08,00:20,0.539,0.330,0.555,0.512,0.546,0.247,0.218,�k�k��,9.7,��
2015/04/08,00:30,0.536,0.328,0.556,0.511,0.546,0.247,0.220,�k�k��,7.9,��
2015/04/08,00:40,0.539,0.328,0.558,0.511,0.546,0.247,0.220,�k�k��,10.6,��
2015/04/08,00:50,0.538,0.330,0.555,0.512,0.547,0.248,0.219,�k�k��,10.0,��
2015/04/08,01:00,0.536,0.327,0.554,0.513,0.546,0.248,0.219,�k�k��,10.6,��
2015/04/08,01:10,0.538,0.328,0.559,0.511,0.548,0.246,0.218,�k�k��,10.5,��
2015/04/08,01:20,0.539,0.328,0.555,0.511,0.546,0.248,0.219,�k�k��,11.4,��
2015/04/08,01:30,0.538,0.328,0.555,0.513,0.548,0.248,0.219,�k�k��,9.2,��
2015/04/08,01:40,0.537,0.329,0.555,0.509,0.547,0.247,0.220,�k�k��,9.8,��
2015/04/08,01:50,0.539,0.328,0.557,0.511,0.547,0.247,0.219,�k�k��,10.7,��
2015/04/08,02:00,0.539,0.328,0.556,0.511,0.546,0.248,0.218,�k�k��,10.1,��
2015/04/08,02:10,0.536,0.330,0.555,0.512,0.549,0.247,0.219,�k�k��,9.8,��
2015/04/08,02:20,0.538,0.329,0.557,0.510,0.549,0.248,0.219,�k�k��,9.8,��
2015/04/08,02:30,0.539,0.329,0.558,0.512,0.547,0.248,0.220,�k�k��,8.1,��
2015/04/08,02:40,0.538,0.328,0.555,0.512,0.549,0.249,0.220,�k�k��,8.6,��
2015/04/08,02:50,0.539,0.330,0.557,0.512,0.550,0.249,0.218,�k�k��,9.0,��
2015/04/08,03:00,0.542,0.330,0.557,0.511,0.548,0.249,0.219,�k,6.4,��
2015/04/08,03:10,0.540,0.329,0.557,0.514,0.548,0.248,0.220,�k�k��,7.9,��
2015/04/08,03:20,0.539,0.328,0.556,0.512,0.548,0.248,0.221,�k�k��,7.5,��
2015/04/08,03:30,0.540,0.331,0.558,0.512,0.550,0.248,0.218,�k,8.1,��
2015/04/08,03:40,0.538,0.330,0.558,0.512,0.546,0.248,0.220,�k�k��,9.0,��
2015/04/08,03:50,0.538,0.330,0.557,0.512,0.548,0.247,0.220,�k�k��,7.3,��
2015/04/08,04:00,0.538,0.330,0.555,0.512,0.549,0.249,0.219,�k�k��,7.8,�L
2015/04/08,04:10,0.543,0.330,0.559,0.511,0.546,0.248,0.220,�k,8.7,�L
2015/04/08,04:20,0.539,0.331,0.559,0.512,0.546,0.249,0.221,�k,8.3,�L
2015/04/08,04:30,0.540,0.330,0.558,0.513,0.549,0.249,0.219,�k,7.5,�L
2015/04/08,04:40,0.542,0.329,0.555,0.511,0.549,0.249,0.220,�k,7.3,�L
2015/04/08,04:50,0.541,0.330,0.556,0.512,0.549,0.250,0.220,�k�k��,6.8,�L
2015/04/08,05:00,0.540,0.331,0.558,0.513,0.547,0.248,0.220,�k,7.2,�L
2015/04/08,05:10,0.542,0.333,0.558,0.513,0.548,0.249,0.221,�k,8.9,�L
2015/04/08,05:20,0.543,0.332,0.559,0.513,0.549,0.251,0.221,�k�k��,7.4,�L
2015/04/08,05:30,0.544,0.332,0.562,0.514,0.551,0.251,0.223,�k�k��,7.4,�L
2015/04/08,05:40,0.543,0.334,0.561,0.515,0.550,0.252,0.224,�k,6.6,�L
2015/04/08,05:50,0.541,0.336,0.559,0.514,0.550,0.254,0.224,�k,7.8,�L
2015/04/08,06:00,0.544,0.335,0.559,0.516,0.553,0.253,0.224,�k,6.4,�L
2015/04/08,06:10,0.542,0.335,0.558,0.515,0.549,0.254,0.224,�k,5.8,�L
2015/04/08,06:20,0.542,0.334,0.560,0.514,0.550,0.255,0.225,�k,5.4,�L
2015/04/08,06:30,0.539,0.333,0.558,0.513,0.547,0.254,0.224,�k,7.5,�L
2015/04/08,06:40,0.537,0.333,0.557,0.509,0.544,0.253,0.224,�k,5.9,�L
2015/04/08,06:50,0.537,0.332,0.554,0.509,0.543,0.251,0.223,�k,6.3,�L
2015/04/08,07:00,0.534,0.333,0.553,0.506,0.542,0.253,0.222,�k,6.4,�L
2015/04/08,07:10,0.532,0.331,0.551,0.505,0.543,0.252,0.222,�k,6.6,�L
2015/04/08,07:20,0.530,0.329,0.551,0.504,0.539,0.251,0.221,�k,6.6,�L
2015/04/08,07:30,0.530,0.329,0.553,0.502,0.535,0.250,0.220,�k,4.9,�L
2015/04/08,07:40,0.528,0.327,0.549,0.499,0.534,0.248,0.219,�k,7.3,�L
2015/04/08,07:50,0.526,0.327,0.549,0.501,0.534,0.248,0.218,�k,5.2,�L
2015/04/08,08:00,0.527,0.326,0.547,0.498,0.532,0.246,0.216,�k,5.8,�L
2015/04/08,08:10,0.523,0.325,0.548,0.496,0.531,0.246,0.216,�k,5.6,�L
2015/04/08,08:20,0.525,0.325,0.546,0.495,0.528,0.245,0.215,�k,6.6,�L
2015/04/08,08:30,0.522,0.324,0.544,0.492,0.526,0.244,0.214,�k,5.4,�L
2015/04/08,08:40,0.522,0.325,0.543,0.493,0.527,0.244,0.213,�k,5.8,�L
2015/04/08,08:50,0.523,0.324,0.541,0.493,0.526,0.244,0.214,�k,5.1,�L
2015/04/08,09:00,0.521,0.324,0.542,0.493,0.526,0.243,0.213,�k�k��,3.6,�L
2015/04/08,09:10,0.521,0.323,0.540,0.490,0.526,0.241,0.212,�k��,3.7,�L
2015/04/08,09:20,0.522,0.322,0.540,0.490,0.524,0.242,0.211,�k��,4.5,�L
2015/04/08,09:30,0.521,0.323,0.539,0.488,0.523,0.241,0.209,�k�k��,4.5,�L
2015/04/08,09:40,0.523,0.322,0.540,0.486,0.523,0.241,0.210,�k,3.7,�L
2015/04/08,09:50,0.525,0.322,0.538,0.489,0.523,0.239,0.210,�k,3.6,�L
2015/04/08,10:00,0.525,0.322,0.539,0.488,0.520,0.241,0.210,�k�k��,3.6,��
2015/04/08,10:10,0.524,0.322,0.538,0.486,0.522,0.238,0.210,�k�k��,4.2,�L
2015/04/08,10:20,0.525,0.321,0.538,0.485,0.523,0.238,0.209,�k,3.0,�L
2015/04/08,10:30,0.526,0.321,0.540,0.485,0.523,0.238,0.209,�k,2.6,�L
2015/04/08,10:40,0.525,0.322,0.540,0.486,0.524,0.238,0.210,�k�k��,2.9,�L
2015/04/08,10:50,0.527,0.321,0.538,0.485,0.522,0.239,0.209,�k�k��,2.9,��
2015/04/08,11:00,0.526,0.321,0.538,0.483,0.524,0.238,0.210,�k��,3.1,�L
2015/04/08,11:10,0.529,0.324,0.541,0.486,0.524,0.238,0.211,�k��,2.9,��
2015/04/08,11:20,0.528,0.324,0.540,0.487,0.525,0.240,0.211,�k��,2.5,��
2015/04/08,11:30,0.528,0.323,0.540,0.488,0.525,0.240,0.211,�k��,2.2,��
2015/04/08,11:40,0.529,0.323,0.544,0.488,0.526,0.241,0.213,�k�k��,2.7,��
2015/04/08,11:50,0.528,0.324,0.544,0.490,0.526,0.241,0.211,�k�k��,3.2,��
2015/04/08,12:00,0.527,0.324,0.542,0.490,0.528,0.242,0.213,�k�k��,3.3,��
2015/04/08,12:10,0.532,0.323,0.544,0.492,0.527,0.241,0.214,�k�k��,3.5,��
2015/04/08,12:20,0.531,0.324,0.545,0.494,0.531,0.242,0.213,�k,3.0,��
2015/04/08,12:30,0.529,0.325,0.545,0.494,0.532,0.243,0.213,�k�k��,3.7,��
2015/04/08,12:40,0.532,0.325,0.545,0.493,0.533,0.243,0.214,�k�k��,2.8,��
2015/04/08,12:50,0.533,0.324,0.549,0.496,0.535,0.242,0.214,�k,3.1,��
2015/04/08,13:00,0.531,0.325,0.547,0.498,0.536,0.242,0.215,�k,2.8,��
2015/04/08,13:10,0.530,0.325,0.545,0.497,0.535,0.244,0.214,�k�k��,5.0,��
2015/04/08,13:20,0.530,0.325,0.548,0.498,0.539,0.244,0.215,�k,4.4,��
2015/04/08,13:30,0.530,0.324,0.551,0.501,0.539,0.244,0.215,�k,4.4,��
2015/04/08,13:40,0.528,0.326,0.549,0.500,0.539,0.244,0.213,�k,5.3,��
2015/04/08,13:50,0.529,0.324,0.547,0.500,0.539,0.243,0.215,�k�k��,6.4,��
2015/04/08,14:00,-,0.325,0.551,0.502,0.540,0.245,0.216,�k,6.1,��
2015/04/08,14:10,-,0.326,0.550,0.500,0.542,0.244,0.215,�k,5.4,��
2015/04/08,14:20,-,0.325,0.549,0.503,0.542,0.245,0.218,�k��,4.3,��
2015/04/08,14:30,-,0.326,0.550,0.503,0.543,0.245,0.216,�k�k��,5.3,��
2015/04/08,14:40,-,0.326,0.552,0.504,0.543,0.244,0.217,�k�k��,5.2,��
2015/04/08,14:50,-,0.326,0.548,0.503,0.543,0.244,0.216,�k�k��,6.3,��
2015/04/08,15:00,-,0.326,0.550,0.507,0.543,0.245,0.217,�k�k��,5.8,��
2015/04/08,15:10,-,0.325,0.552,0.505,0.544,0.244,0.217,�k,5.7,��
2015/04/08,15:20,-,0.328,0.551,0.504,0.544,0.245,0.217,�k�k��,5.8,��
2015/04/08,15:30,-,0.328,0.552,0.506,0.543,0.246,0.215,�k�k��,6.4,��
2015/04/08,15:40,-,0.326,0.553,0.506,0.545,0.245,0.217,�k,4.9,��
2015/04/08,15:50,-,0.327,0.551,0.505,0.544,0.245,0.216,�k�k��,5.6,��
2015/04/08,16:00,-,0.327,0.552,0.509,0.544,0.247,0.216,�k�k��,4.5,��
2015/04/08,16:10,-,0.326,0.554,0.506,0.546,0.246,0.217,�k�k��,5.0,��
2015/04/08,16:20,0.530,0.327,0.553,0.506,0.546,0.246,0.217,�k�k��,6.2,��
2015/04/08,16:30,0.535,0.328,0.551,0.508,0.545,0.246,0.217,�k�k��,5.2,��
2015/04/08,16:40,0.535,0.328,0.553,0.509,0.545,0.246,0.216,�k�k��,4.0,��
2015/04/08,16:50,0.533,0.328,0.554,0.507,0.547,0.247,0.218,�k�k��,3.6,��
2015/04/08,17:00,0.535,0.328,0.553,0.508,0.546,0.247,0.217,�k�k��,4.3,��
2015/04/08,17:10,0.536,0.329,0.551,0.510,0.545,0.246,0.217,�k�k��,3.9,��
2015/04/08,17:20,0.534,0.329,0.552,0.508,0.546,0.247,0.216,�k�k��,4.0,��
2015/04/08,17:30,0.532,0.328,0.555,0.508,0.545,0.246,0.218,�k�k��,4.6,��
2015/04/08,17:40,0.537,0.329,0.553,0.509,0.546,0.246,0.218,�k�k��,3.8,��
2015/04/08,17:50,0.534,0.328,0.552,0.510,0.546,0.246,0.217,�k�k��,3.7,��
2015/04/08,18:00,0.534,0.329,0.555,0.509,0.546,0.246,0.217,�k��,3.9,��
2015/04/08,18:10,0.536,0.327,0.553,0.508,0.546,0.247,0.217,�k��,4.5,��
2015/04/08,18:20,0.536,0.327,0.553,0.511,0.546,0.247,0.218,�k��,4.5,��
2015/04/08,18:30,0.534,0.329,0.555,0.509,0.548,0.246,0.218,�k��,3.9,��
2015/04/08,18:40,0.535,0.328,0.555,0.508,0.547,0.246,0.219,�k��,4.2,��
2015/04/08,18:50,0.535,0.328,0.550,0.511,0.546,0.247,0.218,�k�k��,4.0,��
2015/04/08,19:00,0.535,0.328,0.553,0.510,0.544,0.246,0.216,�k��,3.3,��
2015/04/08,19:10,0.535,0.330,0.554,0.508,0.547,0.247,0.218,�k��,3.1,��
2015/04/08,19:20,0.536,0.329,0.554,0.510,0.547,0.247,0.217,�k�k��,3.1,��
2015/04/08,19:30,0.536,0.328,0.554,0.510,0.545,0.247,0.219,�k,2.8,��
2015/04/08,19:40,0.535,0.327,0.555,0.509,0.545,0.246,0.218,�k,3.6,��
2015/04/08,19:50,0.534,0.329,0.555,0.509,0.548,0.246,0.217,�k,4.2,��
2015/04/08,20:00,0.536,0.329,0.555,0.509,0.547,0.248,0.218,�k,4.3,��
2015/04/08,20:10,0.535,0.327,0.553,0.510,0.546,0.248,0.218,�k,4.2,��
2015/04/08,20:20,0.535,0.328,0.554,0.509,0.544,0.246,0.218,�k,4.5,��
2015/04/08,20:30,0.535,0.328,0.555,0.509,0.546,0.246,0.218,�k,4.5,��
2015/04/08,20:40,0.537,0.329,0.554,0.509,0.548,0.247,0.219,�k,4.6,��
2015/04/08,20:50,0.535,0.328,0.555,0.512,0.545,0.246,0.218,�k,4.6,��
2015/04/08,21:00,0.535,0.328,0.554,0.510,0.548,0.248,0.218,�k,4.4,��
2015/04/08,21:10,0.536,0.329,0.556,0.510,0.547,0.248,0.218,�k,4.7,��
2015/04/08,21:20,0.537,0.331,0.556,0.512,0.547,0.247,0.218,�k,4.7,��
2015/04/08,21:30,0.536,0.328,0.553,0.512,0.547,0.247,0.218,�k,4.9,��
2015/04/08,21:40,0.536,0.327,0.556,0.510,0.545,0.247,0.219,�k�k��,4.7,��
2015/04/08,21:50,0.538,0.327,0.555,0.510,0.548,0.247,0.217,�k,4.8,��
2015/04/08,22:00,0.537,0.329,0.554,0.510,0.546,0.246,0.218,�k,5.0,��
2015/04/08,22:10,0.535,0.329,0.553,0.512,0.545,0.247,0.219,�k,5.1,��
2015/04/08,22:20,0.536,0.328,0.555,0.512,0.547,0.248,0.219,�k,5.3,��
2015/04/08,22:30,0.537,0.328,0.556,0.511,0.547,0.247,0.220,�k,5.0,��
2015/04/08,22:40,0.535,0.330,0.555,0.510,0.547,0.248,0.217,�k,5.0,��
2015/04/08,22:50,0.534,0.329,0.555,0.511,0.547,0.247,0.220,�k�k��,4.5,��
2015/04/08,23:00,0.538,0.329,0.555,0.510,0.545,0.248,0.219,�k,5.5,��
2015/04/08,23:10,0.536,0.330,0.556,0.510,0.546,0.248,0.218,�k,5.6,��
2015/04/08,23:20,0.535,0.330,0.555,0.511,0.547,0.246,0.220,�k,5.2,��
2015/04/08,23:30,0.538,0.328,0.554,0.512,0.548,0.247,0.219,�k,5.6,��
2015/04/08,23:40,0.537,0.329,0.557,0.511,0.547,0.247,0.219,�k,5.3,��
2015/04/08,23:50,0.537,0.327,0.556,0.511,0.546,0.248,0.219,�k,4.7,��
